User: anonymous   Login
Location: Plymouth
(43.7570°N, 71.6890°W)
Time: 17:20:57
(UTC-04:00)
Language:

COSMOS 2406 - Orbit

View from above orbital plane
View from above orbital plane
View from above satellite
View from above satellite

Ground track
Ground track

The orbit data is extracted from the following two-line orbital elements,

1 28352U 04021A   14297.17559469  .00000403  00000-0  24857-3 0  4267
2 28352 071.0032 343.3473 0011690 124.5194 294.4335 14.11358590534408
Epoch (UTC): 24 October 2014 04:12:51
Eccentricity: 0.0011690
inclination: 71.0032°
perigee height: 846 km
apogee height: 863 km
right ascension of ascending node: 343.3473°
argument of perigee: 124.5194°
revolutions per day: 14.11358590
mean anomaly at epoch: 294.4335°
orbit number at epoch: 53440

The dashed part of the orbit path shows where the satellite is in the earth's shadow,  

DLR